Regional Weather Roundup
Issued by NWS

Home | Current Version | Previous Version | Graphics & Text | Print | Product List | Glossary On
Versions: 1 2 3 4 5 6 7 8 9 10 11 12 13 14 15 16 17 18 19 20 21 22 23 24 25 26 27 28 29 30 31 32 33 34 35 36 37 38 39 40 41 42 43 44 45 46 47 48 49 50
000
ASUS43 KOAX 220910
RWRNE

WEATHER ROUNDUP FOR NEBRASKA
NATIONAL WEATHER SERVICE OMAHA NE
400 AM CDT TUE JUL 22 2014

NOTES: SATELLITE DATA IS BEING USED TO AUGMENT CLOUD COVER ABOVE
       12000 FEET.
       "FAIR" INDICATES FEW OR NO CLOUDS BELOW 12,000 FEET WITH NO
       SIGNIFICANT WEATHER AND/OR OBSTRUCTIONS TO VISIBILITY.

  * THESE STATIONS DO NOT REPORT WEATHER SUCH AS RAIN...SNOW OR FOG.

NEZ001>004-019>022-054>056-221000-
NEBRASKA PANHANDLE

CITY           SKY/WX    TMP DP  RH WIND       PRES   REMARKS
SCOTTSBLUFF    CLEAR     64  55  72 W8        30.12R
ALLIANCE       PTCLDY    70  54  56 N12       30.10S
CHADRON        PTCLDY    70  61  73 N8        30.13R
KIMBALL        PTCLDY    63  49  61 W5        30.14R
SIDNEY         PTCLDY    65  51  60 W9        30.11R
$$

NEZ057>060-069>072-079>082-221000-
SOUTHWEST NEBRASKA

CITY           SKY/WX    TMP DP  RH WIND       PRES   REMARKS
NORTH PLATTE   PTCLDY    76  60  57 SW3       30.01R
IMPERIAL       PTCLDY    69  60  73 S8        30.04F
LEXINGTON      PTCLDY    76  64  64 S3        30.00R
MCCOOK         CLEAR     72  63  73 W5        30.02R
OGALLALA       PTCLDY    70  61  72 W5        30.05R
$$

NEZ005>010-023>029-035>040-094-221000-
NORTH CENTRAL NEBRASKA

CITY           SKY/WX    TMP DP  RH WIND       PRES   REMARKS
VALENTINE      MOCLDY    74  65  73 N13       30.09R
AINSWORTH      PTCLDY    73  63  70 N13       30.10R
BROKEN BOW     PTCLDY    74  62  66 NW10      30.01R
O`NEILL        MOCLDY    79  60  51 NE13G18   29.94F
THEDFORD       MOCLDY    78  62  56 N15G25    30.10R
$$

NEZ041-046>049-061>064-073>077-083>087-221000-
SOUTH CENTRAL NEBRASKA

CITY           SKY/WX    TMP DP  RH WIND       PRES   REMARKS
GRAND ISLAND   MOCLDY    80  70  71 SW10      29.96S
AURORA         MOCLDY    79  72  79 SW8       29.95F
HASTINGS       MOCLDY    75  67  76 W7        29.98R
HEBRON         CLEAR     77  67  71 SW6       29.96R
HOLDREGE       PTCLDY    71  63  75 W6        30.00S
KEARNEY *      PTCLDY    77  64  65 SW7       29.99F
YORK           MOCLDY    81  72  74 N13       29.94S
$$

NEZ011>018-030>034-042>045-221000-
NORTHEAST NEBRASKA

CITY           SKY/WX    TMP DP  RH WIND       PRES   REMARKS
NORFOLK        PTCLDY    76  70  82 W5        29.91R
ALBION         PTCLDY    74  69  84 S5        29.94R
BLAIR          CLOUDY    86  67  53 W6        29.90R
COLUMBUS *     MOCLDY    84  70  61 SW12      29.92R
FREMONT        CLOUDY    88  70  54 SW12      29.89S HX  93
TEKAMAH        MOCLDY    82  72  71 CALM      29.87R
WAYNE          PTCLDY    79  74  83 SW12      29.87F
$$

NEZ050>053-065>068-078-088>093-221000-
SOUTHEAST NEBRASKA

CITY           SKY/WX    TMP DP  RH WIND       PRES   REMARKS
LINCOLN        MOCLDY    83  69  62 SW10      29.92R
OMAHA EPPLEY   CLOUDY    89  69  51 S7        29.89R HX  93
BEATRICE       PTCLDY    73  69  87 SE3       29.95S
FALLS CITY     PTCLDY    78  74  87 SW5       29.94R
NEBRASKA CITY  MOCLDY    80  72  76 SW15      29.91F
PLATTSMOUTH    MOCLDY    80  68  67 S8        29.90S
$$

NEZ044-045-051>053-067-221000-
OMAHA AREA

CITY           SKY/WX    TMP DP  RH WIND       PRES   REMARKS
OMAHA EPPLEY   CLOUDY    89  69  51 S7        29.89R HX  93
BLAIR          CLOUDY    86  67  53 W6        29.90R
FREMONT        CLOUDY    88  70  54 SW12      29.89S HX  93
MILLARD        MOCLDY    86  71  60 CALM      29.89R HX  92
OFFUTT AFB     MOCLDY    82  73  73 SE3       29.89R
PLATTSMOUTH    MOCLDY    80  68  67 S8        29.90S
WAHOO          FAIR      85  69  58 W7        29.91R
$$



USA.gov is the U.S. government's official web portal to all federal, state and local government web resources and services.